Location: Maccacari
(45.1333°N, 11.1333°E)
Time: 01:49:02
(UTC+00:00)

A-11 Canister half - Pass Details

Date: 29 January 2021
Orbit: 1525 x 1684 km, 47.3° (Epoch: 07 March)

Event Time Altitude Azimuth Distance (km) Brightness Sun altitude
Rises 16:48:14 0° 286° (WNW) 4,704 12.6 -5.6°
Reaches altitude 10° 16:51:15 10° 286° (WNW) 3,735 12.0 -6.1°
Maximum altitude 17:00:46 88° 198° (SSW) 1,590 9.1 -7.7°
Drops below altitude 10° 17:10:36 10° 111° (ESE) 3,852 10.6 -9.4°
Enters shadow 17:13:22 - 111° (ESE) 4,731 11.1 -9.8°
Sets 17:13:45 0° 111° (ESE) 4,857 - -9.9°
